Visibility
15.0 15.0 14.9 12.7 13.9 13.9 5.8 7.9 0.0 11.4 15.0 0.0 1.5 12.2 15.0 15.0 15.0 15.0 15.0 15.0 15.0 15.0 15.0 15.0 15.0 15.0 15.0 15.0 15.0 15.0 15.0 15.0 15.0 15.0 15.0 15.0 15.0 15.0 15.0 15.0 15.0 15.0 15.0 15.0
15.0 15.0 13.9 15.0 14.1 12.4 6.9 0.1 1.9 6.1 12.8 0.0 3.5 15.0 15.0 15.0 15.0 15.0 15.0 15.0 15.0 15.0 15.0 15.0 15.0 15.0 15.0 15.0 15.0 15.0 15.0 15.0 15.0 15.0 15.0 15.0 15.0 15.0 15.0 15.0 15.0 15.0 7.3 15.0
14.2 11.5 9.5 8.8 12.4 8.6 7.4 0.2 0.0 0.3 5.2 15.0 15.0 15.0 15.0 15.0 15.0 15.0 15.0 15.0 15.0 15.0 15.0 15.0 15.0 15.0 15.0 15.0 15.0 15.0 15.0 15.0 15.0 15.0 15.0 15.0 15.0 15.0 15.0 15.0 15.0 15.0 15.0 15.0
15.0 15.0 15.0 6.6 9.7 6.6 4.4 0.2 2.3 7.5 0.0 5.1 15.0 15.0 15.0 15.0 15.0 15.0 15.0 15.0 15.0 15.0 15.0 15.0 15.0 15.0 15.0 15.0 15.0 15.0 15.0 15.0 15.0 15.0 15.0 15.0 15.0 15.0 15.0 15.0 15.0 15.0 15.0 15.0
15.0 12.2 15.0 14.7 10.4 5.6 0.9 0.0 3.8 15.0 15.0 14.9 15.0 15.0 15.0 15.0 15.0 15.0 15.0 15.0 15.0 15.0 15.0 15.0 15.0 15.0 15.0 15.0 15.0 15.0 15.0 15.0 15.0 15.0 15.0 15.0 15.0 15.0 15.0 15.0 15.0 15.0 15.0 15.0
15.0 15.0 15.0 14.9 5.7 2.7 1.0 2.4 15.0 10.6 15.0 14.4 13.6 15.0 15.0 15.0 15.0 15.0 15.0 15.0 15.0 13.9 15.0 15.0 14.0 15.0 15.0 15.0 14.4 15.0 15.0 15.0 15.0 15.0 15.0 15.0 15.0 15.0 15.0 15.0 15.0 15.0 15.0 15.0
15.0 15.0 15.0 14.7 7.6 1.8 1.9 4.3 15.0 7.6 2.4 2.6 15.0 15.0 15.0 15.0 15.0 15.0 15.0 15.0 15.0 15.0 15.0 10.7 15.0 15.0 15.0 15.0 15.0 15.0 15.0 15.0 15.0 15.0 15.0 15.0 15.0 15.0 15.0 15.0 15.0 15.0 15.0 15.0
14.0 15.0 15.0 15.0 14.4 4.8 8.9 14.3 15.0 14.5 10.4 6.0 15.0 15.0 15.0 15.0 15.0 15.0 15.0 15.0 15.0 15.0 15.0 15.0 15.0 15.0 15.0 15.0 15.0 15.0 15.0 15.0 15.0 15.0 15.0 15.0 15.0 15.0 15.0 15.0 15.0 15.0 15.0 15.0
14.0 11.8 13.9 15.0 15.0 10.9 2.6 15.0 15.0 12.9 11.6 6.4 15.0 15.0 15.0 15.0 15.0 14.9 15.0 15.0 15.0 15.0 15.0 15.0 15.0 15.0 15.0 15.0 15.0 15.0 15.0 15.0 8.0 15.0 15.0 15.0 15.0 15.0 15.0 15.0 15.0 15.0 15.0 15.0
15.0 8.7 15.0 15.0 15.0 8.8 2.1 5.5 15.0 14.0 5.9 15.0 15.0 10.4 15.0 15.0 15.0 15.0 15.0 15.0 9.1 15.0 8.3 15.0 15.0 15.0 15.0 15.0 8.3 15.0 15.0 15.0 15.0 5.5 15.0 15.0 15.0 15.0 15.0 15.0 15.0 15.0 15.0 15.0
10.4 13.0 9.6 12.4 15.0 11.4 4.1 2.9 11.1 15.0 4.2 15.0 15.0 13.5 15.0 14.8 15.0 10.9 15.0 8.5 11.4 7.8 6.2 15.0 15.0 15.0 15.0 15.0 15.0 15.0 15.0 15.0 14.4 15.0 12.2 14.5 15.0 15.0 15.0 15.0 15.0 15.0 15.0 15.0
15.0 13.8 8.8 15.0 15.0 5.9 4.0 6.9 14.6 14.7 6.4 0.4 7.5 15.0 7.6 15.0 15.0 15.0 15.0 11.2 10.6 15.0 14.8 15.0 15.0 1.9 15.0 15.0 15.0 15.0 6.8 14.3 6.5 15.0 15.0 15.0 15.0 15.0 15.0 15.0 15.0 15.0 15.0 15.0
13.1 5.5 13.8 15.0 15.0 6.7 14.2 3.5 14.9 9.2 7.7 5.9 6.7 14.8 15.0 12.8 15.0 15.0 5.0 13.8 15.0 15.0 15.0 15.0 15.0 15.0 15.0 15.0 15.0 15.0 15.0 15.0 15.0 14.9 15.0 15.0 15.0 15.0 15.0 15.0 15.0 15.0 15.0 15.0
13.7 15.0 15.0 15.0 14.3 8.9 6.4 14.0 13.9 10.6 10.5 0.1 1.6 15.0 15.0 15.0 15.0 6.8 9.7 6.2 15.0 15.0 15.0 11.7 12.5 14.4 15.0 14.1 15.0 15.0 15.0 15.0 15.0 15.0 15.0 15.0 15.0 15.0 15.0 15.0 15.0 15.0 15.0 15.0
15.0 15.0 15.0 11.1 6.0 4.1 14.8 15.0 15.0 15.0 15.0 3.1 13.4 15.0 15.0 11.4 15.0 9.9 13.3 11.0 9.1 14.2 12.1 2.8 10.1 15.0 15.0 15.0 15.0 15.0 15.0 15.0 15.0 15.0 15.0 15.0 15.0 15.0 15.0 15.0 15.0 15.0 15.0 15.0
15.0 15.0 3.9 5.9 6.4 14.8 12.3 0.3 4.5 15.0 15.0 15.0 5.5 11.7 15.0 14.6 15.0 14.3 15.0 9.3 8.5 9.0 15.0 11.8 15.0 15.0 15.0 15.0 15.0 15.0 15.0 15.0 15.0 15.0 15.0 15.0 15.0 15.0 15.0 15.0 15.0 15.0 15.0 15.0
4.3 6.9 8.0 15.0 15.0 15.0 3.6 6.3 9.1 15.0 15.0 15.0 15.0 15.0 15.0 15.0 15.0 15.0 14.7 13.8 15.0 8.9 5.9 14.9 12.9 15.0 7.8 15.0 15.0 15.0 15.0 15.0 15.0 15.0 15.0 15.0 15.0 15.0 15.0 15.0 15.0 15.0 15.0 15.0
15.0 15.0 14.9 10.5 7.4 13.1 12.6 15.0 15.0 15.0 15.0 15.0 15.0 11.1 13.8 15.0 15.0 10.1 9.2 5.9 7.0 10.2 12.3 9.5 15.0 15.0 14.9 15.0 15.0 15.0 15.0 15.0 15.0 15.0 15.0 15.0 15.0 15.0 15.0 15.0 15.0 15.0 15.0 15.0
13.1 11.9 8.5 14.9 10.3 9.0 12.4 15.0 15.0 15.0 5.0 15.0 15.0 1.8 4.3 15.0 11.9 4.8 10.0 3.3 4.0 10.3 14.1 14.4 14.3 15.0 13.2 14.8 15.0 15.0 15.0 15.0 15.0 15.0 15.0 15.0 15.0 15.0 15.0 15.0 15.0 15.0 15.0 15.0
15.0 15.0 15.0 15.0 14.9 15.0 15.0 14.4 8.5 14.6 15.0 12.8 0.3 14.7 0.7 0.1 0.1 0.1 0.1 0.6 0.2 2.7 2.5 12.1 8.3 15.0 15.0 15.0 15.0 15.0 15.0 15.0 15.0 15.0 15.0 15.0 15.0 15.0 15.0 15.0 15.0 15.0 15.0 15.0
15.0 15.0 5.5 12.4 12.9 0.8 1.4 0.0 0.0 0.0 0.1 15.0 14.9 11.4 4.5 8.1 0.0 0.1 10.8 0.1 0.1 0.1 0.2 3.1 2.9 6.9 0.1 8.0 15.0 15.0 15.0 15.0 15.0 15.0 15.0 15.0 15.0 15.0 15.0 15.0 15.0 15.0 15.0 15.0
15.0 15.0 15.0 11.5 1.1 2.9 5.4 8.5 0.1 4.3 14.9 7.5 13.6 14.2 15.0 15.0 6.9 0.2 1.0 0.1 0.1 0.0 0.1 0.0 0.1 0.2 10.2 0.1 0.1 15.0 15.0 15.0 15.0 15.0 15.0 15.0 15.0 15.0 15.0 15.0 6.5 1.2 15.0 15.0
15.0 13.9 4.1 5.4 0.1 4.9 15.0 5.9 0.0 0.0 0.0 0.0 0.0 0.0 12.7 9.8 0.5 0.5 2.3 0.0 0.0 0.1 0.1 0.1 0.1 0.7 9.1 0.0 0.0 15.0 15.0 15.0 15.0 15.0 15.0 15.0 15.0 15.0 9.8 0.2 5.5 7.4 0.7 0.2
0.1 0.0 0.2 0.0 0.4 0.2 0.3 0.3 0.1 0.0 0.0 0.0 0.1 0.1 0.1 0.1 0.0 0.0 0.0 0.0 0.1 0.1 0.2 0.1 0.3 0.1 0.1 0.1 0.1 0.6 0.1 0.1 0.1 0.1 0.1 0.1 0.2 0.1 0.1 0.1 0.1 0.1 0.1 0.1
6.6 14.2 0.4 0.3 0.1 1.1 0.6 1.0 0.4 10.3 0.0 0.0 0.1 0.0 0.0 0.0 0.0 2.9 0.0 0.3 0.6 1.3 0.2 0.3 0.3 0.1 0.1 0.1 0.1 0.1 0.1 0.1 0.1 0.1 0.1 0.1 0.1 0.1 0.1 0.1 0.1 0.1 0.1 0.1
3.3 3.7 0.3 0.7 0.1 0.2 0.4 0.2 1.2 8.4 0.1 0.0 0.0 0.0 0.1 0.2 4.4 1.4 0.3 7.5 0.7 0.2 0.2 0.1 0.1 0.1 0.1 0.1 0.1 0.1 0.1 0.1 0.1 0.1 0.1 0.1 0.1 0.1 0.1 0.1 0.1 0.1 0.1 0.1
0.4 0.1 0.1 0.1 0.2 0.1 0.1 0.2 0.2 0.1 0.0 0.1 0.2 1.0 0.2 0.6 0.3 0.1 0.2 0.1 0.1 0.1 0.1 0.1 0.1 0.1 0.1 0.1 0.1 0.1 0.1 0.1 0.1 0.1 0.1 0.1 0.1 0.2 0.5 0.2 0.1 0.2 0.1 0.1